TimeCST,TemperatureF,Dew PointF,Humidity,Sea Level PressureIn,VisibilityMPH,Wind Direction,Wind SpeedMPH,Gust SpeedMPH,PrecipitationIn,Events,Conditions,WindDirDegrees,DateUTC
12:53 AM,14.0,10.9,88,30.05,10.0,Calm,Calm,-,N/A,,Clear,0,2012-12-08 06:53:00
1:53 AM,12.9,10.0,88,30.02,10.0,Calm,Calm,-,N/A,,Clear,0,2012-12-08 07:53:00
2:53 AM,14.0,10.9,88,30.00,10.0,Calm,Calm,-,N/A,,Clear,0,2012-12-08 08:53:00
3:53 AM,17.1,14.0,88,29.98,10.0,Calm,Calm,-,N/A,,Overcast,0,2012-12-08 09:53:00
4:53 AM,19.4,15.8,86,29.89,10.0,Calm,Calm,-,N/A,,Mostly Cloudy,0,2012-12-08 10:53:00
5:53 AM,21.0,17.1,85,29.96,10.0,Calm,Calm,-,N/A,,Overcast,0,2012-12-08 11:53:00
6:53 AM,24.1,19.0,81,29.96,10.0,NE,3.5,-,N/A,,Overcast,50,2012-12-08 12:53:00
7:53 AM,24.1,19.9,84,29.93,10.0,ESE,6.9,-,N/A,,Mostly Cloudy,110,2012-12-08 13:53:00
8:53 AM,30.0,21.9,72,29.91,10.0,South,6.9,-,N/A,,Overcast,170,2012-12-08 14:53:00
9:53 AM,32.0,21.9,66,29.91,10.0,South,15.0,-,N/A,,Overcast,180,2012-12-08 15:53:00
10:53 AM,35.1,21.9,59,29.90,10.0,South,10.4,-,N/A,,Overcast,180,2012-12-08 16:53:00
11:53 AM,37.0,21.9,54,29.88,10.0,South,8.1,-,N/A,,Overcast,180,2012-12-08 17:53:00
12:53 PM,39.9,21.9,49,29.81,10.0,SSE,13.8,-,N/A,,Partly Cloudy,160,2012-12-08 18:53:00
1:53 PM,39.9,21.9,49,29.80,10.0,South,11.5,18.4,N/A,,Mostly Cloudy,170,2012-12-08 19:53:00
2:53 PM,43.0,23.0,45,29.78,10.0,SSE,12.7,-,N/A,,Scattered Clouds,160,2012-12-08 20:53:00
3:53 PM,46.0,23.0,40,29.75,10.0,South,8.1,-,N/A,,Overcast,170,2012-12-08 21:53:00
4:53 PM,42.1,24.1,49,29.78,10.0,North,13.8,-,0.00,Rain,Light Rain,350,2012-12-08 22:53:00
5:53 PM,42.8,28.4,57,29.69,10.0,South,10.4,-,N/A,,Overcast,180,2012-12-08 23:53:00
6:53 PM,41.0,30.9,67,29.77,10.0,SSW,15.0,21.9,N/A,,Overcast,200,2012-12-09 00:53:00
7:53 PM,42.1,28.0,58,29.79,10.0,SW,12.7,-,N/A,,Overcast,220,2012-12-09 01:53:00
8:53 PM,45.0,19.0,36,29.78,10.0,WNW,18.4,-,N/A,,Overcast,290,2012-12-09 02:53:00
9:53 PM,36.0,25.0,64,29.86,10.0,NW,17.3,29.9,N/A,,Overcast,310,2012-12-09 03:53:00
10:53 PM,35.1,26.1,70,29.89,10.0,WNW,18.4,-,N/A,,Overcast,300,2012-12-09 04:53:00
11:53 PM,34.0,23.0,64,29.93,10.0,WNW,18.4,21.9,N/A,,Overcast,290,2012-12-09 05:53:00